Weather History for Bad Axe, MI

Change the Weather History Date:

Thursday, February 28, 2013

  Actual Average (KP58) Record (KP58)
Temperature  
Mean Temperature 30 °F -  
Max Temperature 32 °F 31 °F 42 °F (1998)
Min Temperature 27 °F 20 °F 5 °F (2003)
Degree Days  
Heating Degree Days 35    
Moisture  
Dew Point 29 °F    
Average Humidity 93    
Maximum Humidity 100    
Minimum Humidity 79    
Precipitation  
Precipitation 0.00 in - - ()
Sea Level Pressure  
Sea Level Pressure 29.73 in    
Wind  
Wind Speed 12 mph (North)    
Max Wind Speed 22 mph    
Max Gust Speed 31 mph    
Visibility 7 miles    
Events Snow    
Averages and records for this station are not official NWS values.
T = Trace of Precipitation, MM = Missing Value Source: NWS Daily Summary

Daily Weather History Graph

Daily Weather History Graph

Search for Another Location

Airport:

Trip Planner

Search our weather history database for the weather conditions in past years. The results will help you decide how hot, cold, wet, or windy it might be!

Date:

Astronomy

Feb. 28, 2013 Rise Set
Actual Time 7:09 AM EST 6:19 PM EST
Civil Twilight 6:41 AM EST 6:48 PM EST
Nautical Twilight 6:07 AM EST 7:21 PM EST
Astronomical Twilight 5:34 AM EST 7:55 PM EST
Moon 9:54 PM EST (2/28) 8:11 AM EST (2/28)
Length of Visible Light 12h 07m
Length of Day
11h 09m
Waning Gibbous, 91% of the Moon is Illuminated
Feb 28
Waning Gibbous
Mar 4
Last Quarter
Mar 11
New
Mar 19
First Quarter
Mar 27
Full

Hourly Weather History & Observations

Time (EST) Temp. Windchill Dew Point Humidity Pressure Visibility Wind Dir Wind Speed Gust Speed Precip Events Conditions
12:13 AM 32.4 °F 25.3 °F 32.4 °F 100% 29.54 in 7.0 mi NNE 8.1 mph - N/A Snow Light Snow
12:34 AM 32.4 °F 26.0 °F 32.4 °F 100% 29.55 in 4.0 mi North 6.9 mph - N/A Snow Light Snow
12:54 AM 32.4 °F 26.0 °F 32.4 °F 100% 29.54 in 4.0 mi NNE 6.9 mph - N/A Snow Light Snow
1:13 AM 32.5 °F 24.2 °F 32.5 °F 100% 29.54 in 7.0 mi NNE 10.4 mph - N/A Snow Light Snow
1:34 AM 32.5 °F 24.8 °F 32.5 °F 100% 29.54 in 10.0 mi NNE 9.2 mph - N/A   Overcast
2:13 AM 32.4 °F 26.9 °F 32.4 °F 100% 29.55 in 4.0 mi North 5.8 mph - N/A Snow Light Snow
2:34 AM 32.4 °F 26.9 °F 32.4 °F 100% 29.55 in 7.0 mi North 5.8 mph - N/A Snow Light Snow
2:54 AM 32.4 °F 23.5 °F 32.4 °F 100% 29.54 in 10.0 mi North 11.5 mph - N/A Snow Light Snow
3:13 AM 32.4 °F 25.3 °F 32.4 °F 100% 29.55 in 4.0 mi North 8.1 mph - N/A Snow Light Snow
3:34 AM 32.4 °F 25.3 °F 32.4 °F 100% 29.55 in 5.0 mi North 8.1 mph - N/A Snow Light Snow
3:54 AM 32.5 °F 25.5 °F 32.5 °F 100% 29.55 in 5.0 mi North 8.1 mph - N/A Snow Light Snow
4:13 AM 32.7 °F 24.5 °F 32.7 °F 100% 29.55 in 7.0 mi North 10.4 mph - N/A Snow Light Snow
4:34 AM 32.7 °F 25.0 °F 32.7 °F 100% 29.56 in 5.0 mi North 9.2 mph - N/A Snow Light Snow
4:54 AM 32.9 °F 25.9 °F 32.9 °F 100% 29.57 in 3.0 mi North 8.1 mph - N/A   Overcast
5:13 AM 32.9 °F 24.7 °F 32.9 °F 100% 29.57 in 4.0 mi North 10.4 mph - N/A Snow Light Snow
5:34 AM 32.7 °F 25.7 °F 32.7 °F 100% 29.59 in 3.0 mi North 8.1 mph - N/A Snow Light Snow
5:54 AM 32.5 °F 24.8 °F 32.5 °F 100% 29.59 in 3.0 mi North 9.2 mph - N/A Snow Light Snow
6:14 AM 32.5 °F 23.7 °F 32.5 °F 100% 29.60 in 4.0 mi North 11.5 mph 17.3 mph N/A   Overcast
6:34 AM 32.5 °F 24.2 °F 32.5 °F 100% 29.60 in 3.0 mi NNE 10.4 mph - N/A Snow Light Snow
6:54 AM 32.7 °F 25.0 °F 32.5 °F 99% 29.62 in 5.0 mi North 9.2 mph 16.1 mph N/A Snow Light Snow
7:14 AM 32.9 °F 24.7 °F 32.5 °F 99% 29.62 in 5.0 mi North 10.4 mph - N/A Snow Light Snow
7:34 AM 32.5 °F 24.2 °F 32.4 °F 99% 29.63 in 1.8 mi North 10.4 mph 17.3 mph N/A Snow Light Snow
7:54 AM 32.5 °F 22.3 °F 32.4 °F 99% 29.64 in 1.2 mi North 15.0 mph 21.9 mph N/A Snow Light Snow
8:14 AM 32.2 °F 22.3 °F 32.0 °F 99% 29.65 in 2.5 mi NNE 13.8 mph 27.6 mph N/A Snow Light Snow
8:34 AM 32.2 °F 22.7 °F 32.0 °F 99% 29.66 in 1.5 mi North 12.7 mph 19.6 mph N/A Snow Light Snow
8:54 AM 32.2 °F 22.7 °F 32.0 °F 99% 29.67 in 1.5 mi North 12.7 mph 23.0 mph N/A Snow Light Snow
9:14 AM 32.2 °F 21.1 °F 32.0 °F 99% 29.67 in 2.5 mi NNE 17.3 mph 20.7 mph N/A Snow Light Snow
9:34 AM 32.2 °F 21.4 °F 32.0 °F 99% 29.68 in 2.5 mi North 16.1 mph 24.2 mph N/A Snow Light Snow
9:54 AM 32.2 °F 21.8 °F 32.0 °F 99% 29.68 in 3.0 mi North 15.0 mph 27.6 mph N/A Snow Light Snow
10:14 AM 32.2 °F 22.3 °F 32.0 °F 99% 29.69 in 4.0 mi North 13.8 mph 20.7 mph N/A Snow Light Snow
10:34 AM 32.2 °F 22.7 °F 31.6 °F 98% 29.70 in 4.0 mi North 12.7 mph 23.0 mph N/A Snow Light Snow
10:54 AM 32.4 °F 22.1 °F 31.8 °F 98% 29.71 in 7.0 mi North 15.0 mph 21.9 mph N/A Snow Light Snow
11:14 AM 32.2 °F 21.1 °F 31.5 °F 97% 29.71 in 2.0 mi North 17.3 mph 20.7 mph N/A Snow Light Snow
11:34 AM 32.2 °F 21.4 °F 31.1 °F 96% 29.72 in 10.0 mi North 16.1 mph 25.3 mph N/A   Overcast
11:54 AM 32.2 °F 20.7 °F 30.9 °F 95% 29.73 in 5.0 mi North 18.4 mph 25.3 mph N/A Snow Light Snow
12:14 PM 32.0 °F 22.5 °F 30.4 °F 94% 29.74 in 1.0 mi North 12.7 mph 21.9 mph N/A Snow Light Snow
12:34 PM 32.0 °F 20.8 °F 30.0 °F 92% 29.74 in 3.0 mi North 17.3 mph 24.2 mph N/A Snow Light Snow
12:54 PM 32.0 °F 20.1 °F 29.8 °F 92% 29.74 in 10.0 mi North 19.6 mph 28.8 mph N/A   Overcast
1:14 PM 32.0 °F 21.2 °F 28.9 °F 88% 29.75 in 7.0 mi North 16.1 mph 26.5 mph N/A   Overcast
1:34 PM 32.0 °F 21.6 °F 28.8 °F 88% 29.75 in 10.0 mi North 15.0 mph 26.5 mph N/A   Overcast
1:54 PM 31.1 °F 18.9 °F 28.8 °F 91% 29.76 in 1.2 mi North 19.6 mph 25.3 mph N/A Snow Light Snow
2:14 PM 31.1 °F 18.3 °F 28.4 °F 90% 29.77 in 10.0 mi North 21.9 mph 26.5 mph N/A   Overcast
2:33 PM 30.9 °F 19.1 °F 27.9 °F 88% 29.77 in 10.0 mi North 18.4 mph 27.6 mph N/A   Overcast
2:54 PM 30.7 °F 18.1 °F 27.3 °F 87% 29.78 in 10.0 mi North 20.7 mph 31.1 mph N/A   Overcast
3:14 PM 30.7 °F 18.1 °F 27.1 °F 86% 29.79 in 10.0 mi North 20.7 mph 27.6 mph N/A   Overcast
3:34 PM 30.6 °F 18.2 °F 26.8 °F 86% 29.80 in 10.0 mi North 19.6 mph 27.6 mph N/A   Overcast
3:54 PM 30.2 °F 18.9 °F 26.6 °F 86% 29.81 in 10.0 mi North 16.1 mph 25.3 mph N/A   Overcast
4:14 PM 30.2 °F 18.1 °F 26.6 °F 86% 29.81 in 10.0 mi NNW 18.4 mph 26.5 mph N/A   Overcast
4:34 PM 30.0 °F 18.7 °F 26.6 °F 87% 29.82 in 10.0 mi North 16.1 mph 21.9 mph N/A   Overcast
4:54 PM 30.0 °F 17.5 °F 26.6 °F 87% 29.83 in 10.0 mi North 19.6 mph 25.3 mph N/A   Overcast
5:14 PM 29.8 °F 18.0 °F 26.2 °F 86% 29.84 in 10.0 mi North 17.3 mph 25.3 mph N/A   Overcast
5:34 PM 29.7 °F 17.1 °F 25.9 °F 86% 29.85 in 10.0 mi North 19.6 mph 24.2 mph N/A   Overcast
5:54 PM 29.5 °F 16.5 °F 26.1 °F 87% 29.86 in 10.0 mi North 20.7 mph 26.5 mph N/A   Overcast
6:14 PM 29.1 °F 17.1 °F 25.7 °F 87% 29.87 in 10.0 mi North 17.3 mph 23.0 mph N/A   Overcast
7:14 PM 29.1 °F 18.4 °F 24.8 °F 84% 29.90 in 10.0 mi North 13.8 mph 24.2 mph N/A   Overcast
7:34 PM 29.3 °F 17.3 °F 25.2 °F 85% 29.90 in 10.0 mi North 17.3 mph 25.3 mph N/A   Overcast
8:14 PM 29.3 °F 20.2 °F 24.8 °F 83% 29.91 in 10.0 mi North 10.4 mph - N/A   Overcast
8:34 PM 29.3 °F 17.7 °F 25.0 °F 84% 29.92 in 10.0 mi North 16.1 mph 24.2 mph N/A   Overcast
8:54 PM 29.1 °F 17.9 °F 23.9 °F 81% 29.92 in 10.0 mi North 15.0 mph 21.9 mph N/A   Overcast
9:14 PM 28.9 °F 18.6 °F 23.7 °F 81% 29.93 in 10.0 mi North 12.7 mph 20.7 mph N/A   Overcast
9:34 PM 28.9 °F 18.6 °F 23.9 °F 81% 29.93 in 10.0 mi North 12.7 mph 20.7 mph N/A   Overcast
9:54 PM 28.4 °F 17.5 °F 23.9 °F 83% 29.94 in 10.0 mi North 13.8 mph 23.0 mph N/A   Overcast
10:15 PM 28.4 °F 17.0 °F 23.4 °F 81% 29.94 in 10.0 mi North 15.0 mph 19.6 mph N/A   Overcast
10:34 PM 28.2 °F 18.3 °F 22.6 °F 80% 29.95 in 10.0 mi North 11.5 mph 19.6 mph N/A   Overcast
10:54 PM 28.0 °F 16.5 °F 22.6 °F 80% 29.95 in 10.0 mi North 15.0 mph 19.6 mph N/A   Overcast
11:13 PM 28.0 °F 18.1 °F 22.8 °F 81% 29.95 in 10.0 mi North 11.5 mph - N/A   Overcast
11:54 PM 27.9 °F 17.3 °F 22.1 °F 79% 29.95 in 10.0 mi North 12.7 mph 18.4 mph N/A   Overcast